Regional Weather Roundup
Issued by NWS Upton, NY

Current Version | Previous Version | Graphics & Text | Print | Product List | Glossary Off
Versions: 1 2 3 4 5 6 7 8 9 10 11 12 13 14 15 16 17 18 19 20 21 22 23 24 25 26 27 28 29 30 31 32 33 34 35 36 37 38 39 40 41 42 43 44 45 46 47 48 49 50

000
ASUS41 KOKX 161705
RWROKX

REGIONAL WEATHER ROUNDUP
NATIONAL WEATHER SERVICE NEW YORK NY
100 PM EDT TUE SEP 16 2014

NOTE: "FAIR" INDICATES FEW OR NO CLOUDS BELOW 12,000 FEET WITH NO
SIGNIFICANT WEATHER AND/OR OBSTRUCTIONS TO VISIBILITY.

NYZ071-072-176-178-NJZ106-104-161800-
NEW YORK CITY METRO AREA


CITY           SKY/WX    TMP DP  RH WIND       PRES   REMARKS
CENTRAL PARK   MOSUNNY   64  58  80 CALM      30.02F
LAGUARDIA APRT PTSUNNY   65  58  78 NE7       29.99F
KENNEDY INTL   PTSUNNY   61  58  90 NE5       30.00F
NEWARK/LIBERTY PTSUNNY   67  58  72 N6        29.99F
BRNX BOT. GARD   N/A     66  57  72 NW3       30.01F
TETERBORO      SUNNY     67  57  70 CALM      29.98F
$$

NYZ177-179-078>081-161800-
LONG ISLAND NEW YORK

CITY           SKY/WX    TMP DP  RH WIND       PRES   REMARKS
FARMINGDALE    CLOUDY    61  59  93 SE3       29.99F
ISLIP          LGT RAIN  60  58  92 E3        29.98F FOG
SHIRLEY        LGT RAIN  61  58  90 N5        30.00F FOG
WESTHAMPTON    LGT RAIN  61  58  90 N7        30.01F FOG
MONTAUK POINT    N/A     66  53  63 VRB3      30.01S
$$

NYZ052-065-067-161800-
HUDSON VALLEY

CITY           SKY/WX    TMP DP  RH WIND       PRES   REMARKS
WHITE PLAINS   MOSUNNY   64  57  78 CALM      29.98F
NEWBURGH       MOSUNNY   64  57  77 CALM      30.01F
MONTGOMERY     PTSUNNY   66  54  65 CALM      29.98F
POUGHKEEPSIE   MOSUNNY   68  55  63 N5        29.98F
ALBANY         PTSUNNY   62  54  74 W5        30.00F
$$

NJZ001-105-106-008-010-013-015-019>022-104-161800-
NEW JERSEY

CITY           SKY/WX    TMP DP  RH WIND       PRES   REMARKS
NEWARK/LIBERTY PTSUNNY   67  58  72 N6        29.99F
TETERBORO      SUNNY     67  57  70 CALM      29.98F
CALDWELL       PTSUNNY   67  57  70 VRB5      29.99F
MORRISTOWN     PTSUNNY   68  59  73 CALM      30.00F
SOMERVILLE     PTSUNNY   69  56  62 CALM      29.97F
LINDEN         FAIR      70  61  73 CALM      30.00F
SUSSEX         MOSUNNY   70  54  56 N9        30.00F
ANDOVER          N/A     68  54  60 VRB6      30.00F
TRENTON        PTSUNNY   69  55  60 N8        29.99S
MILLVILLE      MOSUNNY   75  56  51 N12       29.97F
ATLANTIC CITY  MOSUNNY   74  59  59 N13       29.96F
WRIGHTSTOWN    PTSUNNY   67  60  77 N10       29.97S
TOMS RIVER     CLOUDY    63  59  88 NW6       29.99S
BELMAR         CLOUDY    63  55  77 N9        29.99R
$$

PAZ047>061-062-071-161800-
EASTERN PENNSYLVANIA

CITY           SKY/WX    TMP DP  RH WIND       PRES   REMARKS
PHILADELPHIA   MOSUNNY   73  54  51 NW10G20   29.99F
ALLENTOWN      CLOUDY    69  52  54 NW8       30.00F
SCRANTON       CLOUDY    65  49  56 NW13      30.02F
$$

CTZ002-004>006-009-010-012-RIZ004-006-007-MAZ004-011-015-161800-
SOUTHERN NEW ENGLAND
 IN CT

CITY           SKY/WX    TMP DP  RH WIND       PRES   REMARKS
BRADLEY INTL   PTSUNNY   63  56  78 CALM      29.98F
HARTFORD       MOSUNNY   63  55  75 SW7       29.99S
DANBURY        MOSUNNY   64  54  69 W6        30.00F
WTRBRY/OXFORD  PTSUNNY   63  55  77 CALM      30.00F
BRIDGEPORT     CLOUDY    65  58  78 SW5       29.99F
MERIDEN        MOSUNNY   64  55  72 W5        29.99F
NEW HAVEN      PTSUNNY   64  57  78 CALM      29.99F
CHESTER        PTSUNNY   61  57  88 NW3       30.00F
GROTON         CLOUDY    62  58  86 CALM      29.99F
WILLIMANTIC    PTSUNNY   62  57  83 CALM      30.00F

 IN RI

CITY           SKY/WX    TMP DP  RH WIND       PRES   REMARKS
PROVIDENCE     LGT RAIN  68  49  50 SW9       29.99F
BLOCK ISLAND   CLOUDY    64  48  55 SE6       30.00F
WESTERLY       CLOUDY    66  52  60 SE5       29.99F

 IN MA

CITY           SKY/WX    TMP DP  RH WIND       PRES   REMARKS
BOSTON         PTSUNNY   64  53  67 NW6       29.98
WORCESTER      CLOUDY    59  51  75 W8        30.00F
WESTFIELD      MOSUNNY   62  55  77 S6        29.98F
PROVINCETOWN   PTSUNNY   68  52  56 W6        30.00S
NANTUCKET      MOSUNNY   66  48  52 SE9       30.00F
$$

ANZ330-335-338-340-345-350-353-355-161800-
COASTAL MARINE OBSERVATIONS


STATION/POSITION TIME  SKY/WX   TEMP    WIND        PRES    VSBY  WAVE
                                AIR SEA DIR/SP/G                  HT/PER
                 (UTC)          (F)     (DEG/KT/KT) (MB)    (MI)  (FT/S)
NY HARB ENTRANCE NOT AVBL
4S FIRE IS       NOT AVBL
23SW MTP         1700                                 N/A           2/ 8
HUDSON CANYON    1700            68 74  220/  2/  4 1014.9          2/ 7
EXECUTION ROCKS  1700            64 71  340/  2/  4   N/A
WESTERN LI SOUND 1700            62      CALM  /  2   N/A           0
CENTRAL LI SOUND 1700            62 71  180/  8/ 10   N/A           1/ 2
EASTERN LI SOUND 1600            65 68  320/ 12/ 14   N/A
ROBBINS REEF     1600            61     100/ 11/ 13 1014.3
$$


>>>>>>>>>>>>>>>>>>>>>>>>>>>> KEY <<<<<<<<<<<<<<<<<<<<<<<<<<<
>                                                          <
>     SKY/WX - SKY CONDITION/PRESENT WEATHER               <
>     TMP    - TEMPERATURE IN FAHRENHEIT                   <
>     DP     - DEWPOINT IN FAHRENHEIT                      <
>     RH     - RELATIVE HUMIDITY IN PERCENT                <
>     WIND   - DIRECTION AND SPEED IN MPH                  <
>     PRES   - MEAN SEA LEVEL PRESSURE IN INCHES OF HG     <
>     WCI    - WIND CHILL INDEX                            <
>     VSB    - VISIBILITY IN MILES                         <
>     HX     - HEAT INDEX                                  <
>     TC     - TEMPERATURE IN CELSIUS                      <
>     VRB    - VARIABLE WIND DIRECTION                     <
>                                                          <
>>>>>>>>>>>>>>>>>>>>>>>>>>>> KEY <<<<<<<<<<<<<<<<<<<<<<<<<<<




USA.gov is the U.S. government's official web portal to all federal, state and local government web resources and services.